Regional Weather Roundup
Issued by NWS

Home | Current Version | Previous Version | Text Only | Print | Product List | Glossary Off
Versions: 1 2 3 4 5 6 7 8 9 10 11 12 13 14 15 16 17 18 19 20 21 22 23 24 25 26 27 28 29 30 31 32 33 34 35 36 37 38 39 40 41 42 43 44 45 46 47 48 49 50

000
ASUS43 KOAX 251802
RWRNE

WEATHER ROUNDUP FOR NEBRASKA
NATIONAL WEATHER SERVICE OMAHA NE
100 PM CDT SUN SEP 25 2016

NOTES: SATELLITE DATA IS BEING USED TO AUGMENT CLOUD COVER ABOVE
       12000 FEET.
       "FAIR" INDICATES FEW OR NO CLOUDS BELOW 12,000 FEET WITH NO
       SIGNIFICANT WEATHER AND/OR OBSTRUCTIONS TO VISIBILITY.

  * THESE STATIONS DO NOT REPORT WEATHER SUCH AS RAIN...SNOW OR FOG.

NEZ001>004-019>022-054>056-251900-
NEBRASKA PANHANDLE

CITY           SKY/WX    TMP DP  RH WIND       PRES   REMARKS
SCOTTSBLUFF    SUNNY     63  36  36 NW17G30   30.41F
6HR MIN TEMP:  39; 6HR MAX TEMP:  63;

ALLIANCE       SUNNY     62  34  35 NW26G36   30.36F
6HR MIN TEMP:  43; 6HR MAX TEMP:  62;

CHADRON        SUNNY     61  29  29 NW18G32   30.38S
6HR MIN TEMP:  47; 6HR MAX TEMP:  61;

KIMBALL        PTSUNNY   59  37  44 NW14G21   30.43F
SIDNEY         LGT RAIN  63  36  36 NW25      30.41F
6HR MIN TEMP:  42; 6HR MAX TEMP:  63; 6HR PCP: TRACE;

$$

NEZ057>060-069>072-079>082-251900-
SOUTHWEST NEBRASKA

CITY           SKY/WX    TMP DP  RH WIND       PRES   REMARKS
NORTH PLATTE   SUNNY     70  33  25 NW22G37   30.30F
6HR MIN TEMP:  46; 6HR MAX TEMP:  70;

IMPERIAL       SUNNY     67  34  29 N21G37    30.35F
6HR MIN TEMP:  48; 6HR MAX TEMP:  67;

LEXINGTON      SUNNY     67  36  31 NW22G35   30.28S
MCCOOK         SUNNY     70  39  32 N20G26    30.30F
6HR MIN TEMP:  47; 6HR MAX TEMP:  71;

OGALLALA       SUNNY     67  31  26 N23G33    30.34F
$$

NEZ005>010-023>029-035>040-094-251900-
NORTH CENTRAL NEBRASKA

CITY           SKY/WX    TMP DP  RH WIND       PRES   REMARKS
VALENTINE      SUNNY     63  28  26 NW22G41   30.26S
6HR MIN TEMP:  51; 6HR MAX TEMP:  63;

AINSWORTH      SUNNY     63  33  33 NW24G33   30.25S
BROKEN BOW     SUNNY     67  33  28 NW26G36   30.25F
6HR MIN TEMP:  51; 6HR MAX TEMP:  67;

O`NEILL        SUNNY     67  35  31 NW29G36   30.19S
ORD            SUNNY     67  36  31 NW28G37   30.21S
6HR MIN TEMP:  52; 6HR MAX TEMP:  67;

THEDFORD       SUNNY     66  30  25 NW23G36   30.29S
$$

NEZ041-046>049-061>064-073>077-083>087-251900-
SOUTH CENTRAL NEBRASKA

CITY           SKY/WX    TMP DP  RH WIND       PRES   REMARKS
GRAND ISLAND   MOSUNNY   68  44  42 NW23G31   30.23S
6HR MIN TEMP:  49; 6HR MAX TEMP:  69;

AURORA         MOSUNNY   67  44  41 NW20G28   30.22S
HASTINGS       SUNNY     69  42  37 NW20G26   30.24F
6HR MIN TEMP:  50; 6HR MAX TEMP:  69; 6HR PCP: TRACE;

HEBRON         SUNNY     70  45  39 NW17G24   30.20F
HOLDREGE       SUNNY     68  38  33 NW17G25   30.27F
KEARNEY *      SUNNY     70  36  28 NW20G29   30.25S
YORK           SUNNY     68  45  42 NW18G26   30.20S
$$

NEZ011>018-030>034-042>045-251900-
NORTHEAST NEBRASKA

CITY           SKY/WX    TMP DP  RH WIND       PRES   REMARKS
NORFOLK        CLOUDY    64  45  49 NW15G31   30.15S
6HR MIN TEMP:  52; 6HR MAX TEMP:  66;

ALBION         MOSUNNY   67  43  41 NW22G31   30.18S
BLAIR          CLOUDY    69  49  50 NW17G24   30.13S
FREMONT        SUNNY     69  48  47 NW22G30   30.14F
TEKAMAH        PTSUNNY   69  47  45 W21G30    30.12S
6HR MIN TEMP:  54; 6HR MAX TEMP:  71;

WAYNE          CLOUDY    64  48  56 NW22G33   30.15S
$$

NEZ050>053-065>068-078-088>093-251900-
SOUTHEAST NEBRASKA

CITY           SKY/WX    TMP DP  RH WIND       PRES   REMARKS
LINCOLN        MOSUNNY   71  47  42 NW22G29   30.16F
6HR MIN TEMP:  57; 6HR MAX TEMP:  71;

OMAHA EPPLEY   CLOUDY    70  49  47 NW15      30.12F
6HR MIN TEMP:  58; 6HR MAX TEMP:  70;

BEATRICE       CLOUDY    69  49  49 NW21G26   30.17F
FALLS CITY     MOSUNNY   65  50  58 NW16G22   30.14F
6HR MIN TEMP:  60; 6HR MAX TEMP:  67; 6HR PCP:  0.02;

NEBRASKA CITY  CLOUDY    65  41  41 N14G22    30.15F
PLATTSMOUTH    CLOUDY    66  47  49 W13G18    30.13F
$$

NEZ044-045-051>053-067-251900-
OMAHA AREA

CITY           SKY/WX    TMP DP  RH WIND       PRES   REMARKS
OMAHA EPPLEY   CLOUDY    70  49  47 NW15      30.12F
6HR MIN TEMP:  58; 6HR MAX TEMP:  70;

BLAIR          CLOUDY    69  49  50 NW17G24   30.13S
FREMONT        SUNNY     69  48  47 NW22G30   30.14F
MILLARD        PTSUNNY   69  49  49 NW15G22   30.13F
OFFUTT AFB     CLOUDY    68  51  55 NW15G22   30.12F
PLATTSMOUTH    CLOUDY    66  47  49 W13G18    30.13F
WAHOO          FAIR      70  45  40 NW23G29   30.15S
$$




USA.gov is the U.S. government's official web portal to all federal, state and local government web resources and services.